Weather History for Seattle, WA

Change the Weather History Date:

Sunday, November 25, 2012

  Actual Average Record
Temperature  
Mean Temperature 41 °F 43 °F  
Max Temperature 47 °F 49 °F 59 °F (1949)
Min Temperature 34 °F 38 °F 18 °F (1985)
Degree Days  
Heating Degree Days 24 22  
Month to date heating degree days 441 475  
Since 1 July heating degree days 934 1072  
Cooling Degree Days 0 0  
Month to date cooling degree days 0 0  
Year to date cooling degree days 177 189  
Moisture  
Dew Point 37 °F    
Average Humidity 86    
Maximum Humidity 100    
Minimum Humidity 71    
Precipitation  
Precipitation 0.00 in 0.22 in 3.04 in (1998)
Month to date precipitation 6.71 5.47  
Year to date precipitation 39.84 31.04  
Snow  
Snow 0.00 in - 0.50 in (1985)
Month to date snowfall 0.0  
Since 1 July snowfall 0.0  
Snow Depth 0.00 in    
Sea Level Pressure  
Sea Level Pressure 30.31 in    
Wind  
Wind Speed 8 mph (NNE)    
Max Wind Speed 17 mph    
Max Gust Speed 20 mph    
Visibility 5 miles    
Events Fog    
T = Trace of Precipitation, MM = Missing Value Source: NWS Daily Summary

Daily Weather History Graph

Daily Weather History Graph

Search for Another Location

Airport:

Trip Planner

Search our weather history database for the weather conditions in past years. The results will help you decide how hot, cold, wet, or windy it might be!

Date:

Astronomy

Nov. 25, 2012 Rise Set
Actual Time 7:28 AM PST 4:23 PM PST
Civil Twilight 6:54 AM PST 4:58 PM PST
Nautical Twilight 6:16 AM PST 5:36 PM PST
Astronomical Twilight 5:39 AM PST 6:12 PM PST
Moon 2:50 PM PST (11/25) 4:40 AM PST (11/25)
Length of Visible Light 10h 03m
Length of Day
8h 54m
Waxing Gibbous, 93% of the Moon is Illuminated
Nov 25
Waxing Gibbous
Nov 28
Full
Dec 6
Last Quarter
Dec 13
New
Dec 19
First Quarter

Hourly Weather History & Observations

Time (PST) Temp. Windchill Dew Point Humidity Pressure Visibility Wind Dir Wind Speed Gust Speed Precip Events Conditions
12:53 AM 42.1 °F 40.2 °F 39.0 °F 89% 30.29 in 7.0 mi ENE 3.5 mph - N/A   Overcast
1:15 AM 42.8 °F - 39.2 °F 87% 30.27 in 5.0 mi Calm Calm - N/A   Mostly Cloudy
1:44 AM 41.0 °F - 37.4 °F 87% 30.27 in 7.0 mi Calm Calm - N/A   Partly Cloudy
1:53 AM 42.1 °F - 39.0 °F 89% 30.30 in 7.0 mi Calm Calm - N/A   Scattered Clouds
2:53 AM 39.0 °F 36.8 °F 37.0 °F 93% 30.31 in 7.0 mi North 3.5 mph - N/A   Scattered Clouds
3:53 AM 39.0 °F 36.8 °F 36.0 °F 89% 30.32 in 10.0 mi NE 3.5 mph - N/A   Partly Cloudy
4:53 AM 37.9 °F 34.4 °F 36.0 °F 93% 30.33 in 7.0 mi NE 4.6 mph - N/A Fog Patches of Fog
5:04 AM 37.4 °F 32.8 °F 35.6 °F 93% 30.30 in 5.0 mi NE 5.8 mph - N/A   Scattered Clouds
5:41 AM 35.6 °F 31.7 °F 33.8 °F 93% 30.30 in 0.2 mi NNE 4.6 mph - N/A Fog Fog
5:53 AM 34.0 °F 29.8 °F 33.1 °F 96% 30.33 in 0.2 mi NNE 4.6 mph - N/A Fog Fog
6:14 AM 35.6 °F - 33.8 °F 93% 30.30 in 0.2 mi Calm Calm - N/A Fog Fog
6:26 AM 35.6 °F - 33.8 °F 93% 30.30 in 1.5 mi Calm Calm - N/A   Overcast
6:46 AM 35.6 °F - 33.8 °F 93% 30.30 in 0.5 mi Calm Calm - N/A Fog Fog
6:53 AM 36.0 °F - 34.0 °F 93% 30.33 in 0.2 mi Calm Calm - N/A Fog Fog
7:49 AM 37.4 °F - 35.6 °F 93% 30.31 in 0.2 mi Calm Calm - N/A Fog Fog
7:53 AM 37.0 °F 34.5 °F 35.1 °F 93% 30.35 in 0.2 mi North 3.5 mph - N/A Fog Fog
8:53 AM 37.9 °F 34.4 °F 36.0 °F 93% 30.36 in 0.2 mi North 4.6 mph - N/A Fog Fog
9:48 AM 39.2 °F 34.2 °F 37.4 °F 93% 30.34 in 0.2 mi North 6.9 mph - N/A Fog Fog
9:53 AM 39.9 °F 35.1 °F 37.9 °F 93% 30.37 in 0.2 mi NNE 6.9 mph - N/A Fog Fog
10:00 AM 39.2 °F 34.2 °F 37.4 °F 93% 30.34 in 0.2 mi NNE 6.9 mph - N/A Fog Fog
10:07 AM 39.2 °F 35.0 °F 39.2 °F 100% 30.34 in 0.2 mi North 5.8 mph - N/A Fog Fog
10:40 AM 39.2 °F 35.9 °F 37.4 °F 93% 30.34 in 0.5 mi North 4.6 mph - N/A Fog Fog
10:53 AM 41.0 °F 35.2 °F 39.0 °F 93% 30.37 in 0.5 mi North 9.2 mph - N/A Fog Fog
11:51 AM 42.8 °F 36.6 °F 39.2 °F 87% 30.33 in 1.5 mi North 11.5 mph - N/A   Overcast
11:53 AM 42.1 °F 36.6 °F 39.0 °F 89% 30.35 in 1.5 mi North 9.2 mph - N/A   Overcast
11:58 AM 42.8 °F 37.0 °F 39.2 °F 87% 30.32 in 3.0 mi NNE 10.4 mph - N/A   Overcast
12:00 PM 42.8 °F 36.2 °F 39.2 °F 87% 30.32 in 0.5 mi NNE 12.7 mph - N/A   Overcast
12:11 PM 42.8 °F 35.8 °F 39.2 °F 87% 30.32 in 1.0 mi North 13.8 mph - N/A   Overcast
12:28 PM 42.8 °F 36.2 °F 39.2 °F 87% 30.32 in 8.0 mi NNE 12.7 mph - N/A   Scattered Clouds
12:53 PM 45.0 °F 39.3 °F 37.0 °F 74% 30.34 in 10.0 mi NNE 11.5 mph - N/A   Scattered Clouds
1:53 PM 45.0 °F 39.3 °F 37.0 °F 74% 30.32 in 10.0 mi NNE 11.5 mph - N/A   Mostly Cloudy
2:53 PM 46.9 °F - 37.0 °F 68% 30.32 in 10.0 mi North 10.4 mph - N/A   Scattered Clouds
3:53 PM 44.1 °F 39.0 °F 37.0 °F 76% 30.32 in 10.0 mi North 9.2 mph - N/A   Partly Cloudy
4:53 PM 41.0 °F 34.7 °F 34.0 °F 76% 30.32 in 10.0 mi North 10.4 mph - N/A   Partly Cloudy
5:53 PM 42.1 °F 35.7 °F 35.1 °F 76% 30.30 in 10.0 mi NNE 11.5 mph - N/A   Clear
6:53 PM 41.0 °F 33.5 °F 35.1 °F 79% 30.29 in 10.0 mi NNE 13.8 mph - N/A   Clear
7:53 PM 39.9 °F 32.5 °F 35.1 °F 83% 30.28 in 10.0 mi North 12.7 mph - N/A   Clear
8:53 PM 39.9 °F 32.1 °F 36.0 °F 86% 30.27 in 10.0 mi NNE 13.8 mph - N/A   Clear
9:53 PM 39.0 °F 31.0 °F 35.1 °F 86% 30.26 in 10.0 mi North 13.8 mph - N/A   Partly Cloudy
10:53 PM 37.9 °F 30.5 °F 35.1 °F 89% 30.24 in 8.0 mi NNE 11.5 mph - N/A   Partly Cloudy
11:03 PM 37.4 °F 28.9 °F 35.6 °F 93% 30.21 in 7.0 mi North 13.8 mph - N/A   Scattered Clouds
11:53 PM 37.0 °F 29.3 °F 35.1 °F 93% 30.23 in 7.0 mi North 11.5 mph - N/A   Partly Cloudy